Location: Krakow
(50.0830°N, 19.9170°E)
Time: 07:13:15
(UTC+02:00)

Tiros 1 despin weight - Pass Details

Date: 24 March 2026
Orbit: 555 x 592 km, 48.2° (Epoch: 18 April)

Event Time Altitude Azimuth Distance (km) Brightness Sun altitude
Rises 06:05:01 0° 279° (W) 2,820 ? 4.0°
Reaches altitude 10° 06:07:25 10° 272° (W) 1,914 ? 4.4°
Maximum altitude 06:11:30 39° 204° (SSW) 879 ? 5.1°
Drops below altitude 10° 06:15:33 10° 135° (SE) 1,889 ? 5.7°
Sets 06:17:53 0° 128° (SE) 2,779 ? 6.1°
